Home > Weather > Tiruvallur > Past weeks

Flag for India Weather for the Past 2 Weeks in Tiruvallur, Tamil Nadu, India

Now
79 °F

Haze.


Feels Like: 82 °F
Forecast: 65 / 94 °F
Wind: 5 mph from Northeast

Location: Madras / Minambakkam

Current Time: Feb 9, 2016 at 8:04:35 PM

Latest Report: Feb 9, 2016 at 7:00 PM


Visibility: 3 mi

Pressure: 29.86 "Hg

Humidity: 79%

Dew point: 72 °F

Location of TiruvallurLocation

Historic Weather in Tiruvallur — Graph

°F

Tiruvallur Temperature Yesterday

Maximum temperature yesterday: 90 °F (at 12:30 PM)
Minimum temperature yesterday: 73 °F (at 7:00 AM)
Average temperature yesterday: 81 °F

High & Low Weather Summary for the Past Weeks

 TemperatureHumidityPressure
High91 °F (Jan 30, 1:30 PM)100% (Feb 1, 6:30 AM)30.01 "Hg (Feb 1, 6:30 AM)
Low68 °F (Feb 2, 6:30 AM)30% (Feb 2, 1:30 PM)29.80 "Hg (Feb 6, 3:30 PM)
Average80 °F72%29.90 "Hg
* Reported Jan 25 6:30 PM — Feb 9 6:30 PM, Tiruvallur, Weather by CustomWeather, © 2016

Note: Actual official high and low records may vary slightly from our data, if they occured in-between our weather recording intervals... More about our weather records

Advertising

Tiruvallur Weather History for the Previous 24 Hours

 ConditionsComfort  
Time TempWeatherWind HumidityBarometerVisibility
6:30 PM
Tue, Feb 9
81 °FPassing clouds.7 mph70%29.86 "Hg4 mi
6:00 PM81 °FPassing clouds.8 mph70%29.83 "Hg4 mi
5:30 PM82 °FPassing clouds.8 mph66%29.83 "Hg4 mi
5:00 PM84 °FPassing clouds.9 mph58%29.83 "Hg4 mi
4:30 PM86 °FPassing clouds.8 mph55%29.80 "Hg4 mi
3:30 PM88 °FPassing clouds.9 mph49%29.80 "Hg4 mi
3:00 PM88 °FPassing clouds.9 mph52%29.83 "Hg4 mi
2:30 PM88 °FPassing clouds.9 mph52%29.83 "Hg4 mi
1:30 PM88 °FPassing clouds.6 mph52%29.86 "Hg4 mi
1:00 PM90 °FPassing clouds.5 mph52%29.86 "Hg4 mi
12:30 PM88 °FPassing clouds.7 mph55%29.89 "Hg4 mi
12:00 PM88 °FPassing clouds.9 mph55%29.92 "Hg4 mi
11:30 AM88 °FPassing clouds.5 mph55%29.92 "Hg4 mi
11:00 AM86 °FHaze.7 mph59%29.95 "Hg3 mi
10:00 AM82 °FHaze.3 mph70%29.95 "Hg3 mi
9:30 AM81 °FFog.3 mph74%29.95 "Hg2 mi
9:00 AM81 °FFog.3 mph79%29.95 "Hg2 mi
8:30 AM77 °FFog.3 mph89%29.95 "Hg1 mi
8:00 AM75 °FFog.No wind89%29.92 "Hg1 mi
7:30 AM73 °FFog.No wind94%29.92 "Hg1 mi
7:00 AM73 °FFog.No wind89%29.89 "Hg1 mi
6:30 AM73 °FFog.No wind89%29.89 "Hg1 mi
6:00 AM73 °FFog.No wind89%29.86 "Hg1 mi
5:30 AM73 °FFog.No wind89%29.86 "Hg1 mi
5:00 AM73 °FFog.No wind89%29.86 "Hg1 mi
4:30 AM73 °FFog.No wind89%29.86 "Hg2 mi
3:30 AM73 °FFog.No wind89%29.86 "Hg2 mi
3:00 AM73 °FFog.2 mph89%29.86 "Hg2 mi
2:30 AM73 °FFog.No wind89%29.86 "Hg3 mi
2:00 AM73 °FHaze.No wind89%29.86 "Hg3 mi
1:30 AM73 °FHaze.No wind89%29.86 "Hg3 mi
1:00 AM75 °FHaze.No wind89%29.89 "Hg3 mi
12:30 AM75 °FHaze.No wind89%29.89 "Hg3 mi
12:00 AM75 °FHaze.No wind89%29.89 "Hg3 mi
11:30 PM
Mon, Feb 8
75 °FHaze.No wind89%29.89 "Hg3 mi
11:00 PM75 °FHaze.No wind83%29.92 "Hg3 mi
10:30 PM77 °FHaze.No wind83%29.92 "Hg3 mi
10:00 PM77 °FPassing clouds.No wind79%29.92 "Hg4 mi
9:30 PM77 °FPassing clouds.No wind79%29.92 "Hg4 mi
9:00 PM79 °FPassing clouds.6 mph74%29.92 "Hg4 mi
8:30 PM79 °FPassing clouds.6 mph74%29.89 "Hg4 mi
8:00 PM79 °FPassing clouds.7 mph74%29.89 "Hg4 mi
Weather by CustomWeather, © 2016

See weather overviewHow to use our weather pages